sat.trackr.live / text

‹ back to catalog

STARLINK-6254

NORAD 57090 · 2023-088AU

PAYLOAD ACTIVE UNKNOWN

§ Identity

Operator
Country
US
Launch date
2023-06-22
Launch site
AFWTR
Launch vehicle
Mass (kg)
RCS (m²)

Purposes: comms

External: N2YO · Heavens-Above · Gunter

§ Orbital elements

Epoch: 2026-09-20T14:32:00.422016Z

Period
94.27 min
Inclination
43.0047°
Eccentricity
0.0001718
Mean motion
15.27573110 rev/d
Perigee alt
481.9 km
Apogee alt
484.2 km
Semi-major
6,861.2 km
B*
2.4480e-6
RAAN
75.0446°
Arg perigee
270.0064°
Mean anomaly
90.0591°
Rev number
18,031

§ Raw data

STARLINK-62541 57090U 23088AU  26263.60556044 -.00000195  00000+0  24480-5 0  99992 57090  43.0047  75.0446 0001718 270.0064  90.0591 15.27573110180312

JSON: /api/v1/satellites/57090 · /tle

For live sub-satellite position, see the globe view (requires WebGL).

§ Visibility from observer

Set your observer location to see the next 7 days of passes ≥ 10°. The values pass through the URL so the page stays shareable.

No JS? Fill the form by hand. The geolocation button needs JavaScript.